Regional Weather Roundup
Issued by NWS

Home | Current Version | Previous Version | Text Only | Print | Product List | Glossary Off
Versions: 1 2 3 4 5 6 7 8 9 10 11 12 13 14 15 16 17 18 19 20 21 22 23 24 25 26 27 28 29 30 31 32 33 34 35 36 37 38 39 40 41 42 43 44 45 46 47 48 49 50

000
ASUS45 KTFX 082210
RWRMT
MONTANA REGIONAL WEATHER ROUNDUP
NATIONAL WEATHER SERVICE GREAT FALLS MT
300 PM MST THU DEC 08 2016

NOTE: "FAIR" INDICATES FEW OR NO CLOUDS BELOW 12000 FEET WITH NO
SIGNIFICANT WEATHER AND/OR OBSTRUCTIONS TO VISIBILITY.

MTZ001>007-043-082300-
WEST OF THE DIVIDE

CITY           SKY/WX    TMP DP  RH WIND       PRES   REMARKS
KALISPELL      SUNNY     11  -1  58 N15       30.27F WCI  -5
MISSOULA       SUNNY     19   2  47 E9        30.22F WCI   8
BUTTE          SUNNY     12  -1  56 CALM      30.07F
MULLAN PASS    CLOUDY     2  -2  83 SE5       29.94F FOG
ANACONDA         N/A     18   0  45 SE9       30.08F WCI   6
DEER LODGE       N/A     14   1  57 N7        30.13F WCI   4
EUREKA           N/A      3  -2  78 SE3       30.36F
HAMILTON         N/A     16   1  53 CALM      30.17F
LIBBY            N/A     12   3  67 W3        30.31F
PLAINS           N/A     18   5  56 NE7       30.27F WCI   9
RONAN            N/A     14   6  70 N6        30.25F WCI   5
$$

MTZ008-052>055-082300-
SOUTHWEST MONTANA

CITY           SKY/WX    TMP DP  RH WIND       PRES   REMARKS
BOZEMAN        CLOUDY    11   1  64 CALM      30.21F
DILLON         CLOUDY    12  -3  51 CALM      30.10F
W YELLOWSTONE  CLOUDY     9  -4  56 N3        30.08F
ENNIS          SUNNY     14   3  62 N7        30.13F WCI   4
THREE FORKS      N/A     14 -71   1 CALM      30.18F
TWIN BRIDGES     N/A     13  -5  44 SW1       30.10
$$

MTZ009-010-012-014-046-048-049-054-082300-
EAST SLOPES AND CENTRAL MONTANA

CITY           SKY/WX    TMP DP  RH WIND       PRES   REMARKS
CUT BANK       CLOUDY    -1  -8  72 E5        30.37F HAZE
GREAT FALLS    CLOUDY     2  -7  66 CALM      30.38F
MALMSTROM AFB  PTSUNNY    0  -5  78 NE5       30.42F
HELENA         CLOUDY     6  -3  66 NW7       30.29F WCI  -6
AUGUSTA        CLOUDY    -3  -8  79 NE5       30.29F
BOWMANS CRNR   CLOUDY    -5  -8  86 N7        30.29F WCI -19
CHOTEAU          N/A      1  -8  66 MISG      30.37F
CONRAD           N/A      0  -6  75 CALM      30.38S
FAIRFIELD      PTSUNNY    0  -8  68 NE5       30.36F
POWER            N/A     -1  -8  73 NE5       30.37F
RAYNESFORD     FLURRIES  -1  -6  80 NW3       30.35F
ULM            PTSUNNY   -2  -7  78 E5        30.40F
$$

MTZ011-013-016-021-045-047-050-051-082300-
NORTH CENTRAL MONTANA

CITY           SKY/WX    TMP DP  RH WIND       PRES   REMARKS
HAVRE          CLOUDY     2  -7  66 NE3       30.53F
LEWISTOWN      SUNNY      4  -3  73 N5        30.32F
N BAR RANCH      N/A      9  -4  56 S12       30.30F WCI  -6
CHINOOK          N/A      1  -8  66 CALM      30.57F
DENTON         PTSUNNY    3  -4  75 N13G24    30.36S WCI -15
GEYSER         FLURRIES   0  -5  80 E6        30.34S WCI -12
GRASS RANGE      N/A      7  -1  69 E7        30.32F WCI  -4
JUDITH GAP       N/A      4  -3  71 S15       30.25F WCI -14
ROY            MOCLDY     4  -3  74 MISG      30.38F
STANFORD       FLURRIES  -1  -4  86 NE6       30.30F WCI -13
WINIFRED       MOCLDY     2  -2  81 MISG      30.37F
$$

MTZ017>020-022>027-061-062-082300-
NORTHEAST MONTANA

CITY           SKY/WX    TMP DP  RH WIND       PRES   REMARKS
GLASGOW        PTCLDY     5  -4  66 NW3       30.58S
JORDAN           N/A      6  -5  60 CALM      30.53F
SIDNEY         CLEAR      3  -6  66 NW7       30.64S WCI  -9
WOLF POINT     CLEAR      6  -4  63 CALM      30.63S
PLENTYWOOD       N/A     -2  -9  71 NW7       30.59S WCI -16
POPLAR           N/A      5  -6  61 CALM      30.63F
$$

MTZ028>42-056>058-082300-
SOUTHCENTRAL AND SOUTHEAST MONTANA

CITY           SKY/WX    TMP DP  RH WIND       PRES   REMARKS
BAKER          CLEAR     -2  -8  76 NW6       30.52F WCI -14
BILLINGS       MOSUNNY   10  -1  61 NE9       30.36F WCI  -3
LIVINGSTON     CLOUDY     5  -3  69 E12       30.23F WCI -11
MILES CITY     CLEAR      9  -6  50 E6        30.52F WCI  -1
BIG TIMBER     SUNNY      3  -2  78 SE9       30.29F WCI -11
FORSYTH          N/A      9  -2  61 NE6       30.50F WCI  -1
HARLOWTON        N/A      5  -2  71 E5        30.29F
LAUREL           N/A     11  -8  42 NE6       30.30F WCI   2
ROUNDUP          N/A     11  -7  44 NE7       30.27F WCI   0
$$

REGIONAL REPORTS...DAKOTAS

CITY           SKY/WX    TMP DP  RH WIND       PRES   REMARKS
WILLISTON      CLEAR     -2 -10  69 W8        30.63F WCI -17
MINOT          PTCLDY     1  -6  72 W16       30.60S WCI -19
DICKINSON      CLEAR     -2  -8  76 W14       30.53S WCI -21
BEACH          CLOUDY     0  -4  85 NW7       30.57S WCI -13
CROSBY           N/A     -2  -8  78 NW10      30.63S WCI -19
TIOGA            N/A     -2  -8  78 W12       30.58F WCI -20
WATFORD CITY     N/A      0  -8  71 NW9       30.62R WCI -16
BISMARCK       CLOUDY     4  -3  73 NW14      30.63S WCI -14
GRAND FORKS    LGT SNOW  13   8  81 NW15      30.57S WCI  -3
FARGO          LGT SNOW  15   8  73 NW16      30.57R WCI  -1
BUFFALO SD       N/A      6  -4  63 NW10      30.42S WCI  -9
RAPID CITY     CLEAR     13  -4  46 NE5       30.49F
$$

REGIONAL REPORTS...WYOMING/IDAHO/WASHINGTON

CITY           SKY/WX    TMP DP  RH WIND       PRES   REMARKS
GILLETTE       SUNNY      8  -1  66 E7        30.34F WCI  -3
SHERIDAN       SUNNY      7  -4  60 W3        30.34F
BUFFALO WY     CLOUDY     5  -3  69 SE12      30.26F WCI -11
CODY           CLOUDY     9  -4  55 S3        30.21F
YELLOWSTONE LA   N/A      8  -4  58 CALM      30.04F
IDAHO FALLS    CLOUDY    20   8  60 NW13      30.17F WCI   7
SALMON         CLOUDY    12   1  62 CALM      30.18F
BOISE          LGT SNOW  25  22  88 SE14      30.11F FOG     WCI  13
SPOKANE        MOSUNNY   23   6  48 NE13      30.15F WCI  11
$$

REGIONAL REPORTS...ALBERTA

CITY           SKY/WX    TMP DP  RH WIND       PRES   REMARKS
EDMONTON       MOCLDY    -8 -15  71 NE3       30.62F
CALGARY        PTCLDY    -4 -11  71 E9        30.41F WCI -20
LETHBRIDGE     FLURRIES  -4  -9  77 CALM      30.49F
MEDICINE HAT   MOCLDY    -4 -11  71 S5        30.59F
WATERTON GATE    N/A     -8 -13  77 E6          N/A  WCI -21
CARDSTON         N/A     -4 -11  71 N2          N/A
MILK RIVER       N/A     -2  -8  78 N5          N/A
ONEFOUR          N/A     -4  -9  77 NW7         N/A  WCI -18
$$

REGIONAL REPORTS...SASKATCHEWAN

CITY           SKY/WX    TMP DP  RH WIND       PRES   REMARKS
SWIFT CURRENT  CLOUDY    -4  -8  84 W8        30.52F WCI -19
REGINA         PTCLDY     0  -8  71 NW12      30.60S WCI -18
SASKATOON      CRYSTALS  -4 -11  71 NW12      30.67S WCI -22
CYPRESS HILLS    N/A     -6 -11  77 S1          N/A
VAL MARIE        N/A     -2 -11  65 NE1         N/A
ROCKGLEN         N/A     -4  -9  77 NW3         N/A
ASSINIBOIA       N/A     -4  -9  77 CALM        N/A
$$



USA.gov is the U.S. government's official web portal to all federal, state and local government web resources and services.